www.pogodaiklimat.ru

Погода и климат >> Архив погоды >> Россия >> Краснодарский край >> Туапсе


АРХИВ ПОГОДЫ в Туапсе

Время (UTC), дата Ветер
(напр.,м/с)
 
Видим.   Явления Облачность Т
(С)
Тd
(С)
f
(%)
Тe
(С)
Тes
(С)
Комфортность P
(гПа)
Po
(гПа)
Тmin
(С)
Tmax
(С)
R
(мм)
R24
(мм)
S
(см)
03 10.09 СВ 3 20 км ясно +19.1 +9.4 53 +20 +20 тепло 1014.7 1007.5 +19.1
06 10.09 СВ 3 20 км 3/3 1000 м
[Sc]
+22.0 +10.0 46 +24 +27 комфорт 1014.8 1007.7 +18.8
09 10.09 В 4 20 км 3/3 1000 м
[Cu med, cong]
+25.5 +11.6 42 +27 +33 жарко 1015.2 1008.1
12 10.09 С 3 20 км 3/3 1000 м
[Cu med, cong]
+28.0 +8.9 30 +28 +32 жарко 1014.3 1007.3
15 10.09 СВ 3
{10}
20 км 3/3 1000 м
[Cu med, cong]
+25.9 +7.5 31 +26 +26 жарко 1014.2 1007.1 +28.5
18 10.09 СВ 3
{11}
10 км ясно +23.6 +6.8 34 +24 +24 комфорт 1014.7 1007.6
21 10.09 СВ 2 10 км ясно +21.4 +7.3 40 +22 +22 комфорт 1016.1 1008.9
00 11.09 С 2 10 км 3/3 1000 м
[Cu med, cong]
+20.5 +8.9 47 +22 +22 комфорт 1016.8 1009.6
03 11.09 С 1 20 км 3/3 1000 м
[Cu Sc]
+18.8 +9.6 55 +21 +21 комфорт 1017.4 1010.2 +18.8
06 11.09 СВ 2 20 км 4/4 1000 м
[Cu Sc]
+21.6 +10.2 48 +23 +26 комфорт 1018.3 1011.1 +18.6
09 11.09 С 2 20 км 3/3 1000 м
[Cu Sc]
+27.0 +12.0 39 +28 +37 жарко 1018.7 1011.7
12 11.09 ЮЗ 3 20 км 1/1 1000 м
[Cu hum]
+29.1 +15.0 42 +32 +37 душно 1017.8 1010.8
15 11.09 СВ 4
{11}
20 км ясно +26.2 +9.0 34 +27 +27 жарко 1017.2 1010.1 +29.3
18 11.09 СВ 4-10
{11}
10 км ясно +24.1 +8.1 36 +25 +25 комфорт 1018.1 1011.0
21 11.09 СВ 3 10 км ясно +22.2 +7.5 39 +23 +23 комфорт 1018.6 1011.4
00 12.09 СВ 3 10 км 8/8 1000 м
[Sc]
+20.7 +7.2 42 +22 +22 комфорт 1018.9 1011.7
03 12.09 С 2 20 км 8/8 1000 м
[Cb cap]
+19.3 +8.3 49 +21 +21 комфорт 1019.3 1012.1 +19.3
06 12.09 СВ 3 20 км 3/3 1000 м
[Cu Sc]
+22.4 +8.4 41 +24 +27 комфорт 1019.2 1012.0 +19.1
09 12.09 В 4 20 км 3/3 1000 м
[Cu hum]
+26.3 +9.0 34 +27 +32 жарко 1019.0 1011.9
12 12.09 ЮЗ 3 20 км ясно +28.6 +13.6 40 +30 +37 жарко 1017.9 1010.9
15 12.09 С 2 20 км ясно +26.7 +1.1 19 +25 +25 комфорт 1017.2 1010.1 +29.4
18 12.09 СВ 4 10 км ясно +24.0 +2.9 25 +23 +23 комфорт 1017.3 1010.2
21 12.09 СВ 3
{10}
10 км ясно +21.7 +4.7 33 +22 +22 комфорт 1017.6 1010.4
00 13.09 С 2 10 км ясно +19.9 +5.9 40 +21 +21 комфорт 1017.4 1010.2
03 13.09 СВ 2 20 км 1/1 1000 м
[Cu hum]
+18.8 +6.6 45 +20 +20 тепло 1018.3 1011.0 +18.7
06 13.09 СВ 3 20 км 1/1 1000 м
[Cu med, cong]
+22.5 +7.7 39 +24 +27 комфорт 1018.9 1011.7 +18.3
09 13.09 ЮЗ 2 20 км 1/1 1000 м
[Cu med, cong]
+28.8 +13.1 38 +30 +41 жарко 1018.3 1011.3
12 13.09 ЮЗ 3 20 км 1/1 1000 м
[Cu med, cong]
+28.7 +13.6 40 +31 +36 жарко 1017.6 1010.6
15 13.09 СЗ 1 20 км ясно +24.8 +14.2 52 +27 +28 жарко 1016.7 1009.6 +30.0
18 13.09 СВ 2 10 км ясно +24.2 +1.8 23 +23 +23 комфорт 1016.4 1009.3
21 13.09 СВ 3 10 км ясно +21.9 +3.1 29 +22 +22 комфорт 1017.3 1010.1
00 14.09 С 2 10 км ясно +20.1 +4.7 36 +21 +21 комфорт 1017.3 1010.1
03 14.09 СВ 2 20 км ясно +17.7 +6.2 47 +18 +18 по сезону 1017.9 1010.6 +16.0
06 14.09 В 2 20 км 1/1 1000 м
[Sc]
+23.8 +10.1 42 +25 +29 комфорт 1018.3 1011.2
09 14.09 ЮВ 3 20 км 1/1 1000 м
[Cu med, cong]
+26.3 +12.7 43 +28 +37 жарко 1018.1 1011.0
12 14.09 Ю 1 20 км 3/3 1000 м
[Cu med, cong]
+27.0 +16.9 54 +31 +37 душно 1017.4 1010.4
15 14.09 З 1 20 км 1/1 1000 м
[Cu med, cong]
+24.0 +16.7 64 +28 +28 душно 1016.7 1009.6 +28.0
18 14.09 С 1 10 км 4/0
[Ci sp]
+21.2 +16.1 73 +25 +25 комфорт 1017.1 1009.9
21 14.09 С 2 10 км ясно +19.4 +8.5 49 +21 +21 комфорт 1017.3 1010.1
00 15.09 С 2 10 км ясно +19.9 +6.6 42 +21 +21 комфорт 1017.2 1010.0
03 15.09 СВ 2 20 км 6/3 1000 м
[Sc Ci fib]
+18.7 +7.0 46 +20 +20 тепло 1018.1 1010.9 +17.7
06 15.09 СВ 2 20 км 6/3 1000 м
[Sc Ci fib]
+23.8 +9.3 40 +25 +28 комфорт 1018.5 1011.3
09 15.09 ЮЗ 2 20 км 8/3 1000 м
[Cu Sc Ci fib]
+28.1 +10.0 32 +28 +35 жарко 1018.6 1011.6
12 15.09 ЮЗ 2 20 км 4/1 1000 м
[Cu med, cong Ci fib]
+27.8 +10.2 33 +28 +34 жарко 1018.7 1011.7
15 15.09 ЮЗ 1 20 км 8/6 1000 м
[Cb cap Ac trans Ci fib]
+24.8 +10.9 42 +26 +26 жарко 1019.2 1012.1 +29.6
18 15.09 С 2 10 км 6/0
[Ac cast]
+21.2 +13.4 61 +24 +24 комфорт 1019.8 1012.6
21 15.09 С 1 10 км 6/0
[Ac cast]
+19.7 +10.3 55 +22 +22 комфорт 1018.8 1011.6
00 16.09 СВ 3 10 км 3/0
[Ac cast]
+13.1 +17.3 100 +12 +12 прохладно 1018.4 1011.2
03 16.09 СВ 2 20 км ясно +17.2 +9.6 61 +18 +18 по сезону 1017.1 1009.8 +17.2
06 16.09 СВ 2 20 км ясно +23.7 +11.4 46 +25 +30 комфорт 1016.2 1008.9
09 16.09 ЮВ 2 20 км ясно +25.1 +17.3 62 +29 +41 душно 1015.6 1008.3
12 16.09 ЮЗ 2 20 км ясно +28.2 +16.5 49 +32 +39 душно 1014.0 1006.7
15 16.09 З 1 20 км ясно +23.9 +12.8 50 +26 +26 жарко 1013.5 1006.4 +28.4
18 16.09 СВ 1 10 км ясно +20.7 +12.8 61 +24 +24 комфорт 1014.3 1007.1
21 16.09 СВ 1 10 км ясно +18.2 +13.1 72 +20 +20 тепло 1014.1 1006.9
00 17.09 С 2 10 км 4/0
[Ci fib]
+17.4 +12.8 74 +18 +18 тепло 1013.4 1006.2

 

Местоположение метеостанции Туапсе (Краснодарский край, Россия): широта 44.10 долгота 39.07 высота над уровнем моря 62 м.

В архиве по умолчанию представлена погода в Туапсе за последнюю неделю. Архивные данные за месяц целиком и за предыдущие месяцы, начиная с января 2011 года, Вы можете получить, выбрав интересующий диапазон дат из раскрывающегося списка и нажав кнопку "Ввод!".


*Определитесь, кто Вы:
робот инопланетянин человек

Внимание! Время в таблицах - всемирное. Для получения местного времени необходимо прибавить поправку, которая равна 3 ч.

Смотрите также архив погоды в соседних городах и на ближайших метеорологических станциях:

Погода в Магри (Краснодарский край, Россия) (11 км)
Погода в Горном (Краснодарский край, Россия) (26 км)
Погода в Лазаревском (Краснодарский край, Россия) (30 км)
Погода в Джубге (Краснодарский край, Россия) (38 км)
Погода в Кичмае (Краснодарский край, Россия) (46 км)
Погода в Солох Ауле (Краснодарский край, Россия) (56 км)
Погода в Горячем Ключе (Краснодарский край, Россия) (59 км)
Погода в Сочи (Краснодарский край, Россия) (81 км)
Погода в Гузерипле (Адыгея, Россия) (85 км)
Погода в Шунтуке (Адыгея, Россия) (93 км)

Пояснения к столбцам:

Ветер - указаны скорость ветра в м/с - средняя за 10 мин, порывы в срок и между сроками (в фигурных скобках) и направление, откуда дует ветер: С - северный, СВ - северо-восточный, В - восточный, ЮВ - юго-восточный, Ю - южный, ЮЗ - юго-западный, З - западный, СЗ - северо-западный.
Видимость - горизонтальная дальность видимости в метрах или километрах. При видимости от 1 до 10 км при отсутствии осадков обычно наблюдается дымка, при ухудшении видимости до 1 км и менее - туман. В сухую погоду видимость может ухудшаться дымом, пылью или мглою.
Явления - указаны атмосферные явления, наблюдавшиеся в срок или в последний час перед сроком; фигурными скобками обозначены явления, наблюдавшиеся между сроками (за 1-3 часа до срока); квадратными скобками обозначены град или гололедные отложения с указанием их диаметра в мм.
Облачность - указаны через наклонную черту общая и нижняя облачность в баллах и высота нижней границы облаков в метрах; квадратными скобками обозначены формы облаков: Ci - перистые, Cs - перисто-слоистые, Cc - перисто-кучевые, Ac - высококучевые, As - высокослоистые, Sc - слоисто-кучевые, Ns - слоисто-дождевые, Cu - кучевые, Cb - кучево-дождевые. Подробнее классификацию облаков см. в Атласе облаков (PDF).
T - Температура воздуха - температура, измеренная на высоте 2 м над землей.
Td - Температура точки росы - температура, при понижении до которой содержащийся в воздухе водяной пар достигнет насыщения.
f - Относительная влажность воздуха - влажноcть воздуха, измеренная на высоте 2 м над землей.
Te - Эффективная температура - температура, которую ощущает одетый по сезону человек в тени. Характеристика душности погоды. При расчете учитывается влияние влажности воздуха и скорости ветра на теплоощущения человека.
Tes - Эффективная температура на солнце - температура, которую ощущает человек, с поправкой на солнечный нагрев. Характеристика знойности погоды. Зависит от высоты солнца над горизонтом, облачности и скорости ветра. Ночью, в пасмурную погоду, а также при ветре 12 м/с и более поправка равна нулю.
P - Атмосферное давление - приведенное к уровню моря атмосферное давление.
Po - Атмосферное давление - измеренное на уровне метеостанции атмосферное давление.
Tmin - Минимальная температура - минимум температуры воздуха на высоте 2 м над землей.
Tmax - Максимальная температура - максимум температуры воздуха на высоте 2 м над землей.
R - Количество осадков - Количество выпавших осадков за период времени, мм. При наведении курсора мыши на число - период времени, за который выпало указанное количество осадков.
R24 - Количество осадков - Количество выпавших осадков за 24 часа, мм.
S - Снежный покров - Высота снежного покрова, см. При наведении курсора мыши на число - состояние снежного покрова и степень покрытия местности в баллах.